This demonstration page uses our WeatherBlox Daily Observations layout. Learn more.

Left ArrowRight Arrow

38.20091, -84.87328

Hourly Observations for April 1, 2016

Temp ( °F °C ) Dew Point ( °F °C ) Humidity (%) Winds ( mph kmh ) Pressure ( in mb ) Visibility ( mi km ) Precip ( " mm )
12:10 am 00:10 Cloudy 62 16.7 55 12.8 78 78 W 7 11 29.62 1003 10 16 0.00 0.00
12:53 am 00:53 Cloudy 59 15 51 10.6 75 75 NW 12 19 29.64 1004 10 16 0.00 0.00
1:09 am 01:09 Cloudy 58 14.4 49 9.4 72 72 WNW 5 7 29.68 1005 10 16 0.00 0.00
1:53 am 01:53 Cloudy 57 13.9 50 10 78 78 NNW 5 7 29.65 1004 10 16 0.01 0.25
2:53 am 02:53 Cloudy 56 13.3 50 10 81 81 Calm 29.65 1004 10 16 0.00 0.00
3:53 am 03:53 Cloudy 55 12.8 51 10.6 87 87 SW 7 11 29.66 1005 10 16 0.00 0.00
4:53 am 04:53 Cloudy 56 13.3 51 10.6 84 84 W 3 6 29.66 1004 10 16 0.00 0.03
5:53 am 05:53 Partly Cloudy 54 12.2 50 10 87 87 W 5 7 29.68 1005 10 16 0.00 0.00
6:53 am 06:53 Mostly Cloudy 53 11.7 49 9.4 86 86 W 3 6 29.71 1006 10 16 0.00 0.00
7:53 am 07:53 Sunny 52 11.1 47 8.3 83 83 W 3 6 29.71 1006 10 16 0.00 0.00
8:53 am 08:53 Sunny 54 12.2 46 7.8 75 75 VRB 6 9 29.74 1007 10 16 0.00 0.00
9:53 am 09:53 Sunny 56 13.3 43 6.1 62 62 NW 6 9 29.76 1008 10 16 0.00 0.00
10:53 am 10:53 Sunny 57 13.9 42 5.6 58 58 W 12 19 29.78 1009 10 16 0.00 0.00
11:53 am 11:53 Sunny 60 15.6 41 5 50 50 W 8 13 29.78 1008 10 16 0.00 0.00
12:53 pm 12:53 Sunny 63 17.2 40 4.4 43 43 W 14 22 29.77 1008 10 16 0.00 0.00
1:53 pm 13:53 Sunny 65 18.3 37 2.8 36 36 WSW 17 28 29.75 1008 10 16 0.00 0.00
2:53 pm 14:53 Partly Cloudy 65 18.3 37 2.8 36 36 WSW 20 31 29.77 1008 10 16 0.00 0.00
3:53 pm 15:53 Mostly Sunny 65 18.3 38 3.3 37 37 WSW 17 28 29.78 1008 10 16 0.00 0.00
4:53 pm 16:53 Partly Cloudy 64 17.8 33 0.6 32 32 W 15 24 29.75 1008 10 16 0.00 0.00
5:53 pm 17:53 Sunny 62 16.7 30 -1.1 30 30 W 13 20 29.77 1008 10 16 0.00 0.00
6:53 pm 18:53 Sunny 60 15.6 32 0 35 35 WSW 13 20 29.78 1008 10 16 0.00 0.00
7:53 pm 19:53 Sunny 57 13.9 32 0 39 39 WNW 7 11 29.81 1009 10 16 0.00 0.00
8:53 pm 20:53 Clear 55 12.8 33 0.6 44 44 WNW 7 11 29.82 1010 10 16 0.00 0.00
9:53 pm 21:53 Clear 53 11.7 34 1.1 48 48 WNW 7 11 29.85 1011 10 16 0.00 0.00
10:53 pm 22:53 Clear 52 11.1 33 0.6 49 49 WNW 10 17 29.86 1011 10 16 0.00 0.00
11:53 pm 23:53 Clear 50 10 33 0.6 52 52 WNW 6 9 29.84 1011 10 16 0.00 0.00

Powered by AerisWeather